Weather History for Rice Lake, WI

Change the Weather History Date:

Monday, September 2, 2013

  Actual Average Record
Temperature  
Mean Temperature 56 °F -  
Max Temperature 66 °F 75 °F 89 °F (1999)
Min Temperature 46 °F 53 °F 44 °F (1998)
Degree Days  
Heating Degree Days 9    
Growing Degree Days 6 (Base 50)    
Moisture  
Dew Point 48 °F    
Average Humidity 71    
Maximum Humidity 93    
Minimum Humidity 47    
Precipitation  
Precipitation 0.00 in - - ()
Sea Level Pressure  
Sea Level Pressure 30.05 in    
Wind  
Wind Speed 6 mph (NNW)    
Max Wind Speed 14 mph    
Max Gust Speed 23 mph    
Visibility 10 miles    
Events      
Averages and records for this station are not official NWS values.
T = Trace of Precipitation, MM = Missing Value Source: NWS Daily Summary

Daily Weather History Graph

Daily Weather History Graph

Search for Another Location

Airport:

Trip Planner

Search our weather history database for the weather conditions in past years. The results will help you decide how hot, cold, wet, or windy it might be!

Date:

Astronomy

Sep. 02, 2013 Rise Set
Actual Time 6:30 AM CDT 7:42 PM CDT
Civil Twilight 5:59 AM CDT 8:12 PM CDT
Nautical Twilight 5:22 AM CDT 8:49 PM CDT
Astronomical Twilight 4:44 AM CDT 9:27 PM CDT
Moon 3:42 AM CDT (9/2) 5:59 PM CDT (9/2)
Length of Visible Light 14h 13m
Length of Day
13h 12m
Waning Crescent, 8% of the Moon is Illuminated
Sep 2
Waning Crescent
Sep 5
New
Sep 12
First Quarter
Sep 19
Full
Sep 26
Last Quarter

Hourly Weather History & Observations

Time (CDT) Temp. Dew Point Humidity Pressure Visibility Wind Dir Wind Speed Gust Speed Precip Events Conditions
12:15 AM 61.0 °F 50.2 °F 68% 29.98 in 10.0 mi North 5.8 mph - N/A   Overcast
12:35 AM 61.0 °F 50.2 °F 68% 29.98 in 10.0 mi North 3.5 mph - N/A   Overcast
12:55 AM 60.8 °F 50.9 °F 70% 29.98 in 10.0 mi NNW 6.9 mph - N/A   Overcast
1:15 AM 59.9 °F 51.1 °F 73% 29.98 in 10.0 mi North 8.1 mph 16.1 mph N/A   Overcast
1:35 AM 57.2 °F 51.4 °F 81% 29.99 in 7.0 mi NNW 6.9 mph - N/A   Overcast
1:55 AM 57.7 °F 51.1 °F 78% 29.99 in 10.0 mi NNW 8.1 mph - N/A   Overcast
2:15 AM 57.7 °F 51.3 °F 79% 29.99 in 10.0 mi North 6.9 mph - N/A   Overcast
2:35 AM 57.2 °F 50.9 °F 79% 29.99 in 10.0 mi NNW 6.9 mph - N/A   Overcast
2:55 AM 56.7 °F 50.2 °F 79% 30.00 in 10.0 mi North 9.2 mph - N/A   Overcast
3:15 AM 56.7 °F 50.2 °F 79% 30.00 in 10.0 mi North 5.8 mph - N/A   Overcast
3:35 AM 56.7 °F 50.0 °F 78% 30.00 in 10.0 mi NNW 6.9 mph - N/A   Overcast
3:55 AM 56.3 °F 49.5 °F 78% 30.00 in 10.0 mi NNW 6.9 mph - N/A   Overcast
4:15 AM 56.3 °F 49.3 °F 77% 30.00 in 10.0 mi North 5.8 mph - N/A   Overcast
4:35 AM 56.3 °F 49.5 °F 78% 30.01 in 10.0 mi North 8.1 mph - N/A   Overcast
4:55 AM 56.3 °F 48.0 °F 74% 30.02 in 10.0 mi NNW 6.9 mph - N/A   Overcast
5:15 AM 55.6 °F 48.6 °F 77% 30.02 in 10.0 mi NNW 5.8 mph - N/A   Overcast
5:35 AM 55.6 °F 48.7 °F 78% 30.03 in 10.0 mi NNW 5.8 mph - N/A   Overcast
5:55 AM 54.9 °F 49.1 °F 81% 30.03 in 10.0 mi NNW 6.9 mph - N/A   Overcast
6:15 AM 54.7 °F 49.1 °F 81% 30.03 in 10.0 mi NW 3.5 mph - N/A   Overcast
6:35 AM 55.4 °F 48.9 °F 79% 30.03 in 10.0 mi NNW 6.9 mph - N/A   Overcast
6:55 AM 54.9 °F 49.3 °F 81% 30.04 in 7.0 mi NNW 8.1 mph - N/A   Overcast
7:15 AM 54.1 °F 50.4 °F 87% 30.05 in 10.0 mi NNW 5.8 mph - N/A   Overcast
7:35 AM 54.3 °F 50.2 °F 86% 30.06 in 10.0 mi NNW 4.6 mph - N/A   Overcast
7:55 AM 54.5 °F 50.0 °F 85% 30.06 in 10.0 mi North 5.8 mph - N/A   Overcast
8:15 AM 56.8 °F 49.5 °F 76% 30.06 in 10.0 mi North 8.1 mph - N/A   Overcast
8:35 AM 57.2 °F 48.7 °F 73% 30.06 in 10.0 mi North 10.4 mph - N/A   Overcast
8:55 AM 55.4 °F 49.6 °F 81% 30.07 in 10.0 mi NNW 5.8 mph - N/A   Overcast
9:15 AM 55.9 °F 48.4 °F 76% 30.08 in 10.0 mi North 9.2 mph - N/A   Overcast
9:35 AM 57.2 °F 47.3 °F 69% 30.09 in 10.0 mi North 8.1 mph - N/A   Overcast
9:55 AM 56.8 °F 47.7 °F 71% 30.09 in 10.0 mi Calm Calm - N/A   Overcast
10:15 AM 56.7 °F 48.4 °F 74% 30.09 in 10.0 mi NNW 4.6 mph - N/A   Overcast
10:35 AM 56.3 °F 49.3 °F 77% 30.09 in 7.0 mi WNW 9.2 mph 16.1 mph N/A   Overcast
10:55 AM 56.3 °F 50.0 °F 79% 30.10 in 7.0 mi NW 11.5 mph 18.4 mph N/A   Overcast
11:15 AM 57.7 °F 49.5 °F 74% 30.09 in 7.0 mi NNW 13.8 mph 20.7 mph N/A   Overcast
11:35 AM 57.4 °F 48.9 °F 73% 30.10 in 10.0 mi NNW 10.4 mph 19.6 mph N/A   Overcast
11:55 AM 58.1 °F 48.2 °F 70% 30.10 in 10.0 mi NW 9.2 mph 23.0 mph N/A   Mostly Cloudy
12:15 PM 60.1 °F 48.2 °F 65% 30.09 in 10.0 mi NW 6.9 mph - N/A   Overcast
12:35 PM 61.5 °F 47.5 °F 60% 30.09 in 10.0 mi NW 6.9 mph - N/A   Overcast
12:55 PM 61.9 °F 46.6 °F 57% 30.09 in 10.0 mi North 10.4 mph - N/A   Overcast
1:15 PM 63.5 °F 45.9 °F 53% 30.09 in 10.0 mi North 8.1 mph - N/A   Mostly Cloudy
1:35 PM 63.3 °F 45.7 °F 53% 30.08 in 10.0 mi NW 6.9 mph 16.1 mph N/A   Mostly Cloudy
1:55 PM 63.3 °F 45.7 °F 53% 30.08 in 10.0 mi North 3.5 mph - N/A   Mostly Cloudy
2:15 PM 64.0 °F 45.5 °F 51% 30.08 in 10.0 mi NNW 10.4 mph - N/A   Scattered Clouds
2:35 PM 65.3 °F 45.9 °F 49% 30.07 in 10.0 mi WNW 6.9 mph - N/A   Scattered Clouds
2:55 PM 65.1 °F 46.0 °F 50% 30.07 in 10.0 mi NW 8.1 mph - N/A   Scattered Clouds
3:15 PM 65.7 °F 45.7 °F 48% 30.06 in 10.0 mi North 9.2 mph - N/A   Clear
3:35 PM 65.3 °F 45.1 °F 48% 30.06 in 10.0 mi North 4.6 mph - N/A   Clear
3:55 PM 65.7 °F 45.0 °F 47% 30.06 in 10.0 mi WNW 5.8 mph - N/A   Clear
4:15 PM 66.4 °F 45.7 °F 47% 30.06 in 10.0 mi NNW 8.1 mph - N/A   Clear
4:35 PM 66.2 °F 45.5 °F 47% 30.06 in 10.0 mi North 6.9 mph - N/A   Clear
4:55 PM 66.4 °F 45.9 °F 48% 30.06 in 10.0 mi NNW 8.1 mph - N/A   Clear
5:15 PM 65.8 °F 45.7 °F 48% 30.06 in 10.0 mi NW 8.1 mph - N/A   Clear
5:35 PM 65.3 °F 44.8 °F 47% 30.06 in 10.0 mi NW 6.9 mph - N/A   Clear
5:55 PM 65.3 °F 44.8 °F 47% 30.06 in 10.0 mi North 6.9 mph - N/A   Clear
6:15 PM 64.6 °F 45.0 °F 49% 30.06 in 10.0 mi North 4.6 mph - N/A   Clear
6:35 PM 64.4 °F 45.1 °F 50% 30.06 in 10.0 mi NNW 4.6 mph - N/A   Clear
6:55 PM 63.5 °F 45.5 °F 52% 30.06 in 10.0 mi North 6.9 mph - N/A   Clear
7:15 PM 62.1 °F 46.4 °F 56% 30.05 in 10.0 mi NNW 3.5 mph - N/A   Clear
7:35 PM 60.8 °F 46.9 °F 60% 30.06 in 10.0 mi NNW 3.5 mph - N/A   Clear
7:55 PM 58.3 °F 48.7 °F 71% 30.06 in 10.0 mi Calm Calm - N/A   Clear
8:15 PM 56.1 °F 48.6 °F 76% 30.06 in 10.0 mi NNW 3.5 mph - N/A   Clear
8:35 PM 54.1 °F 47.8 °F 79% 30.06 in 10.0 mi Calm Calm - N/A   Clear
8:55 PM 53.8 °F 48.2 °F 81% 30.06 in 10.0 mi Calm Calm - N/A   Clear
9:15 PM 52.0 °F 48.6 °F 88% 30.07 in 10.0 mi Calm Calm - N/A   Clear
9:35 PM 50.7 °F 48.6 °F 92% 30.07 in 10.0 mi Calm Calm - N/A   Clear
9:55 PM 50.0 °F 47.5 °F 91% 30.07 in 10.0 mi Calm Calm - N/A   Clear
10:15 PM 50.2 °F 46.9 °F 89% 30.07 in 10.0 mi Calm Calm - N/A   Clear
10:35 PM 49.3 °F 46.4 °F 90% 30.07 in 10.0 mi Calm Calm - N/A   Clear
10:55 PM 48.4 °F 46.4 °F 93% 30.07 in 10.0 mi Calm Calm - N/A   Clear
11:15 PM 48.6 °F 46.8 °F 93% 30.08 in 10.0 mi Calm Calm - N/A   Clear
11:35 PM 46.9 °F 45.1 °F 93% 30.07 in 10.0 mi Calm Calm - N/A   Clear
11:55 PM 47.3 °F 45.5 °F 93% 30.08 in 7.0 mi Calm Calm - N/A   Clear